Year,Month,Day,Hour,Minute,Value (Times are PST for temperature in C)
2012,06,28,00,00,10.40
2012,06,28,00,01,10.30
2012,06,28,00,02,10.30
2012,06,28,00,03,10.30
2012,06,28,00,04,10.30
2012,06,28,00,05,10.30
2012,06,28,00,06,10.30
2012,06,28,00,07,10.30
2012,06,28,00,08,10.30
2012,06,28,00,09,10.30
2012,06,28,00,10,10.30
2012,06,28,00,11,10.30
2012,06,28,00,12,10.30
2012,06,28,00,13,10.30
2012,06,28,00,14,10.30
2012,06,28,00,15,10.30
2012,06,28,00,16,10.30
2012,06,28,00,17,10.30
2012,06,28,00,18,10.30
2012,06,28,00,19,10.30
2012,06,28,00,20,10.20
2012,06,28,00,21,10.20
2012,06,28,00,22,10.20
2012,06,28,00,23,10.20
2012,06,28,00,24,10.20
2012,06,28,00,25,10.20
2012,06,28,00,26,10.10
2012,06,28,00,27,10.10
2012,06,28,00,28,10.10
2012,06,28,00,29,10.10
2012,06,28,00,30,10.10
2012,06,28,00,31,10.10
2012,06,28,00,32,10.00
2012,06,28,00,33,10.00
2012,06,28,00,34,10.00
2012,06,28,00,35,10.00
2012,06,28,00,36,10.00
2012,06,28,00,37,10.00
2012,06,28,00,38,10.00
2012,06,28,00,39,9.90
2012,06,28,00,40,9.90
2012,06,28,00,41,9.90
2012,06,28,00,42,9.90
2012,06,28,00,43,9.90
2012,06,28,00,44,9.90
2012,06,28,00,45,9.90
2012,06,28,00,46,9.90
2012,06,28,00,47,9.90
2012,06,28,00,48,9.80
2012,06,28,00,49,9.80
2012,06,28,00,50,9.80
2012,06,28,00,51,9.80
2012,06,28,00,52,9.80
2012,06,28,00,53,9.70
2012,06,28,00,54,9.70
2012,06,28,00,55,9.70
2012,06,28,00,56,9.70
2012,06,28,00,57,9.70
2012,06,28,00,58,9.60
2012,06,28,00,59,9.60
2012,06,28,01,00,9.60
2012,06,28,01,01,9.60
2012,06,28,01,02,9.60
2012,06,28,01,03,9.60
2012,06,28,01,04,9.60
2012,06,28,01,05,9.50
2012,06,28,01,06,9.50
2012,06,28,01,07,9.40
2012,06,28,01,08,9.40
2012,06,28,01,09,9.40
2012,06,28,01,10,9.40
2012,06,28,01,11,9.30
2012,06,28,01,12,9.30
2012,06,28,01,13,9.30
2012,06,28,01,14,9.30
2012,06,28,01,15,9.30
2012,06,28,01,16,9.30
2012,06,28,01,17,9.30
2012,06,28,01,18,9.30
2012,06,28,01,19,9.30
2012,06,28,01,20,9.30
2012,06,28,01,21,9.20
2012,06,28,01,22,9.20
2012,06,28,01,23,9.20
2012,06,28,01,24,9.10
2012,06,28,01,25,9.10
2012,06,28,01,26,9.10
2012,06,28,01,27,9.10
2012,06,28,01,28,9.10
2012,06,28,01,29,9.10
2012,06,28,01,30,9.10
2012,06,28,01,31,9.10
2012,06,28,01,32,9.10
2012,06,28,01,33,9.00
2012,06,28,01,34,9.00
2012,06,28,01,35,9.00
2012,06,28,01,36,9.00
2012,06,28,01,37,9.00
2012,06,28,01,38,8.90
2012,06,28,01,39,8.90
2012,06,28,01,40,8.90
2012,06,28,01,41,8.90
2012,06,28,01,42,8.90
2012,06,28,01,43,8.90
2012,06,28,01,44,8.90
2012,06,28,01,45,8.80
2012,06,28,01,46,8.80
2012,06,28,01,47,8.80
2012,06,28,01,48,8.80
2012,06,28,01,49,8.80
2012,06,28,01,50,8.80
2012,06,28,01,51,8.80
2012,06,28,01,52,8.70
2012,06,28,01,53,8.70
2012,06,28,01,54,8.70
2012,06,28,01,55,8.70
2012,06,28,01,56,8.70
2012,06,28,01,57,8.70
2012,06,28,01,58,8.70
2012,06,28,01,59,8.70
2012,06,28,02,00,8.70
2012,06,28,02,01,8.70
2012,06,28,02,02,8.70
2012,06,28,02,03,8.70
2012,06,28,02,04,8.70
2012,06,28,02,05,8.70
2012,06,28,02,06,8.70
2012,06,28,02,07,8.70
2012,06,28,02,08,8.70
2012,06,28,02,09,8.70
2012,06,28,02,10,8.70
2012,06,28,02,11,8.70
2012,06,28,02,12,8.70
2012,06,28,02,13,8.70
2012,06,28,02,14,8.70
2012,06,28,02,15,8.70
2012,06,28,02,16,8.70
2012,06,28,02,17,8.70
2012,06,28,02,18,8.70
2012,06,28,02,19,8.70
2012,06,28,02,20,8.70
2012,06,28,02,21,8.70
2012,06,28,02,22,8.70
2012,06,28,02,23,8.70
2012,06,28,02,24,8.70
2012,06,28,02,25,8.60
2012,06,28,02,26,8.60
2012,06,28,02,27,8.60
2012,06,28,02,28,8.60
2012,06,28,02,29,8.60
2012,06,28,02,30,8.60
2012,06,28,02,31,8.60
2012,06,28,02,32,8.60
2012,06,28,02,33,8.60
2012,06,28,02,34,8.60
2012,06,28,02,35,8.60
2012,06,28,02,36,8.60
2012,06,28,02,37,8.60
2012,06,28,02,38,8.60
2012,06,28,02,39,8.60
2012,06,28,02,40,8.60
2012,06,28,02,41,8.60
2012,06,28,02,42,8.60
2012,06,28,02,43,8.60
2012,06,28,02,44,8.60
2012,06,28,02,45,8.60
2012,06,28,02,46,8.60
2012,06,28,02,47,8.60
2012,06,28,02,48,8.60
2012,06,28,02,49,8.70
2012,06,28,02,50,8.70
2012,06,28,02,51,8.70
2012,06,28,02,52,8.70
2012,06,28,02,53,8.60
2012,06,28,02,54,8.60
2012,06,28,02,55,8.60
2012,06,28,02,56,8.60
2012,06,28,02,57,8.60
2012,06,28,02,58,8.60
2012,06,28,02,59,8.60
2012,06,28,03,00,8.60
2012,06,28,03,01,8.60
2012,06,28,03,02,8.60
2012,06,28,03,06,8.60
2012,06,28,03,07,8.60
2012,06,28,03,08,8.60
2012,06,28,03,09,8.60
2012,06,28,03,10,8.60
2012,06,28,03,11,8.60
2012,06,28,03,12,8.60
2012,06,28,03,13,8.60
2012,06,28,03,14,8.60
2012,06,28,03,15,8.60
2012,06,28,03,16,8.60
2012,06,28,03,17,8.50
2012,06,28,03,18,8.60
2012,06,28,03,19,8.60
2012,06,28,03,20,8.60
2012,06,28,03,21,8.60
2012,06,28,03,22,8.60
2012,06,28,03,23,8.60
2012,06,28,03,24,8.60
2012,06,28,03,25,8.60
2012,06,28,03,26,8.60
2012,06,28,03,27,8.60
2012,06,28,03,28,8.60
2012,06,28,03,29,8.60
2012,06,28,03,30,8.60
2012,06,28,03,31,8.60
2012,06,28,03,32,8.60
2012,06,28,03,33,8.60
2012,06,28,03,34,8.60
2012,06,28,03,35,8.60
2012,06,28,03,36,8.60
2012,06,28,03,37,8.60
2012,06,28,03,38,8.60
2012,06,28,03,39,8.60
2012,06,28,03,40,8.60
2012,06,28,03,41,8.60
2012,06,28,03,42,8.50
2012,06,28,03,43,8.50
2012,06,28,03,44,8.50
2012,06,28,03,45,8.50
2012,06,28,03,46,8.50
2012,06,28,03,47,8.40
2012,06,28,03,48,8.40
2012,06,28,03,49,8.40
2012,06,28,03,50,8.40
2012,06,28,03,51,8.40
2012,06,28,03,52,8.40
2012,06,28,03,53,8.40
2012,06,28,03,54,8.40
2012,06,28,03,55,8.40
2012,06,28,03,56,8.40
2012,06,28,03,57,8.40
2012,06,28,03,58,8.40
2012,06,28,03,59,8.40
2012,06,28,04,00,8.40
2012,06,28,04,01,8.40
2012,06,28,04,02,8.40
2012,06,28,04,03,8.40
2012,06,28,04,04,8.40
2012,06,28,04,05,8.40
2012,06,28,04,06,8.40
2012,06,28,04,07,8.40
2012,06,28,04,08,8.50
2012,06,28,04,09,8.50
2012,06,28,04,10,8.50
2012,06,28,04,11,8.50
2012,06,28,04,12,8.50
2012,06,28,04,13,8.60
2012,06,28,04,14,8.60
2012,06,28,04,15,8.60
2012,06,28,04,16,8.60
2012,06,28,04,17,8.60
2012,06,28,04,18,8.60
2012,06,28,04,19,8.60
2012,06,28,04,20,8.60
2012,06,28,04,21,8.60
2012,06,28,04,22,8.70
2012,06,28,04,23,8.70
2012,06,28,04,24,8.70
2012,06,28,04,25,8.70
2012,06,28,04,26,8.70
2012,06,28,04,27,8.70
2012,06,28,04,28,8.70
2012,06,28,04,29,8.70
2012,06,28,04,30,8.70
2012,06,28,04,31,8.70
2012,06,28,04,32,8.70
2012,06,28,04,33,8.70
2012,06,28,04,34,8.70
2012,06,28,04,35,8.70
2012,06,28,04,36,8.70
2012,06,28,04,37,8.70
2012,06,28,04,38,8.70
2012,06,28,04,39,8.70
2012,06,28,04,40,8.70
2012,06,28,04,41,8.70
2012,06,28,04,42,8.70
2012,06,28,04,43,8.70
2012,06,28,04,44,8.70
2012,06,28,04,45,8.70
2012,06,28,04,46,8.70
2012,06,28,04,47,8.70
2012,06,28,04,48,8.70
2012,06,28,04,49,8.70
2012,06,28,04,50,8.70
2012,06,28,04,51,8.60
2012,06,28,04,52,8.60
2012,06,28,04,53,8.60
2012,06,28,04,54,8.60
2012,06,28,04,55,8.60
2012,06,28,04,56,8.60
2012,06,28,04,57,8.60
2012,06,28,04,58,8.60
2012,06,28,04,59,8.60
2012,06,28,05,00,8.60
2012,06,28,05,01,8.60
2012,06,28,05,02,8.60
2012,06,28,05,03,8.60
2012,06,28,05,04,8.60
2012,06,28,05,05,8.60
2012,06,28,05,06,8.60
2012,06,28,05,07,8.70
2012,06,28,05,08,8.70
2012,06,28,05,09,8.70
2012,06,28,05,10,8.70
2012,06,28,05,11,8.70
2012,06,28,05,12,8.70
2012,06,28,05,13,8.70
2012,06,28,05,14,8.70
2012,06,28,05,15,8.70
2012,06,28,05,16,8.70
2012,06,28,05,17,8.70
2012,06,28,05,18,8.70
2012,06,28,05,19,8.70
2012,06,28,05,20,8.70
2012,06,28,05,21,8.70
2012,06,28,05,22,8.70
2012,06,28,05,23,8.70
2012,06,28,05,24,8.70
2012,06,28,05,25,8.60
2012,06,28,05,26,8.70
2012,06,28,05,27,8.60
2012,06,28,05,28,8.60
2012,06,28,05,29,8.60
2012,06,28,05,30,8.60
2012,06,28,05,31,8.60
2012,06,28,05,32,8.60
2012,06,28,05,33,8.60
2012,06,28,05,34,8.60
2012,06,28,05,35,8.60
2012,06,28,05,36,8.60
2012,06,28,05,37,8.60
2012,06,28,05,38,8.60
2012,06,28,05,39,8.50
2012,06,28,05,40,8.50
2012,06,28,05,41,8.50
2012,06,28,05,42,8.50
2012,06,28,05,43,8.50
2012,06,28,05,44,8.50
2012,06,28,05,45,8.40
2012,06,28,05,46,8.40
2012,06,28,05,47,8.40
2012,06,28,05,48,8.40
2012,06,28,05,49,8.40
2012,06,28,05,50,8.40
2012,06,28,05,51,8.40
2012,06,28,05,52,8.40
2012,06,28,05,53,8.40
2012,06,28,05,54,8.40
2012,06,28,05,55,8.40
2012,06,28,05,56,8.50
2012,06,28,05,57,8.50
2012,06,28,05,58,8.50
2012,06,28,05,59,8.60
2012,06,28,06,00,8.60
2012,06,28,06,01,8.60
2012,06,28,06,02,8.60
2012,06,28,06,03,8.60
2012,06,28,06,04,8.70
2012,06,28,06,05,8.70
2012,06,28,06,06,8.70
2012,06,28,06,07,8.70
2012,06,28,06,08,8.70
2012,06,28,06,09,8.70
2012,06,28,06,10,8.80
2012,06,28,06,11,8.80
2012,06,28,06,12,8.80
2012,06,28,06,13,8.80
2012,06,28,06,14,8.80
2012,06,28,06,15,8.80
2012,06,28,06,16,8.80
2012,06,28,06,17,8.90
2012,06,28,06,18,8.90
2012,06,28,06,19,8.90
2012,06,28,06,20,8.90
2012,06,28,06,21,8.90
2012,06,28,06,22,8.90
2012,06,28,06,23,8.90
2012,06,28,06,24,9.00
2012,06,28,06,25,9.00
2012,06,28,06,26,9.00
2012,06,28,06,27,9.10
2012,06,28,06,28,9.10
2012,06,28,06,29,9.10
2012,06,28,06,30,9.10
2012,06,28,06,31,9.10
2012,06,28,06,32,9.20
2012,06,28,06,33,9.20
2012,06,28,06,34,9.20
2012,06,28,06,35,9.20
2012,06,28,06,36,9.30
2012,06,28,06,37,9.30
2012,06,28,06,38,9.30
2012,06,28,06,39,9.40
2012,06,28,06,40,9.40
2012,06,28,06,41,9.50
2012,06,28,06,42,9.50
2012,06,28,06,43,9.60
2012,06,28,06,44,9.60
2012,06,28,06,45,9.70
2012,06,28,06,46,9.70
2012,06,28,06,47,9.80
2012,06,28,06,48,9.80
2012,06,28,06,49,9.90
2012,06,28,06,50,10.00
2012,06,28,06,51,10.00
2012,06,28,06,52,10.10
2012,06,28,06,53,10.20
2012,06,28,06,54,10.30
2012,06,28,06,55,10.40
2012,06,28,06,56,10.50
2012,06,28,06,57,10.60
2012,06,28,06,58,10.70
2012,06,28,06,59,10.80
2012,06,28,07,00,10.80
2012,06,28,07,01,11.00
2012,06,28,07,02,11.10
2012,06,28,07,03,11.20
2012,06,28,07,04,11.30
2012,06,28,07,05,11.40
2012,06,28,07,06,11.50
2012,06,28,07,07,11.60
2012,06,28,07,08,11.70
2012,06,28,07,09,11.80
2012,06,28,07,10,11.90
2012,06,28,07,11,12.00
2012,06,28,07,12,12.10
2012,06,28,07,13,12.30
2012,06,28,07,14,12.40
2012,06,28,07,15,12.50
2012,06,28,07,16,12.60
2012,06,28,07,17,12.70
2012,06,28,07,18,12.80
2012,06,28,07,19,12.90
2012,06,28,07,20,13.00
2012,06,28,07,21,13.20
2012,06,28,07,22,13.30
2012,06,28,07,23,13.40
2012,06,28,07,24,13.50
2012,06,28,07,25,13.60
2012,06,28,07,26,13.70
2012,06,28,07,27,13.80
2012,06,28,07,28,13.80
2012,06,28,07,29,13.90
2012,06,28,07,30,13.90
2012,06,28,07,31,14.00
2012,06,28,07,32,14.10
2012,06,28,07,33,14.10
2012,06,28,07,34,14.20
2012,06,28,07,35,14.20
2012,06,28,07,36,14.30
2012,06,28,07,37,14.30
2012,06,28,07,38,14.40
2012,06,28,07,39,14.50
2012,06,28,07,40,14.50
2012,06,28,07,41,14.60
2012,06,28,07,42,14.80
2012,06,28,07,43,14.80
2012,06,28,07,44,15.00
2012,06,28,07,45,15.00
2012,06,28,07,46,15.00
2012,06,28,07,47,15.10
2012,06,28,07,48,15.20
2012,06,28,07,49,15.30
2012,06,28,07,50,15.40
2012,06,28,07,51,15.50
2012,06,28,07,52,15.50
2012,06,28,07,53,15.60
2012,06,28,07,54,15.60
2012,06,28,07,55,15.60
2012,06,28,07,56,15.60
2012,06,28,07,57,15.60
2012,06,28,07,58,15.60
2012,06,28,07,59,15.70
2012,06,28,08,00,15.70
2012,06,28,08,01,15.70
2012,06,28,08,02,15.70
2012,06,28,08,03,15.70
2012,06,28,08,04,15.70
2012,06,28,08,05,15.70
2012,06,28,08,06,15.70
2012,06,28,08,07,15.70
2012,06,28,08,08,15.70
2012,06,28,08,09,15.80
2012,06,28,08,10,15.80
2012,06,28,08,11,15.80
2012,06,28,08,12,15.80
2012,06,28,08,13,15.80
2012,06,28,08,14,15.80
2012,06,28,08,15,15.80
2012,06,28,08,16,15.80
2012,06,28,08,17,15.80
2012,06,28,08,18,15.80
2012,06,28,08,19,15.80
2012,06,28,08,20,15.80
2012,06,28,08,21,15.80
2012,06,28,08,22,15.80
2012,06,28,08,23,15.80
2012,06,28,08,24,15.80
2012,06,28,08,25,15.70
2012,06,28,08,26,15.70
2012,06,28,08,27,15.70
2012,06,28,08,28,15.70
2012,06,28,08,29,15.70
2012,06,28,08,30,15.70
2012,06,28,08,31,15.70
2012,06,28,08,32,15.70
2012,06,28,08,33,15.70
2012,06,28,08,34,15.70
2012,06,28,08,35,15.70
2012,06,28,08,36,15.70
2012,06,28,08,37,15.70
2012,06,28,08,38,15.70
2012,06,28,08,39,15.70
2012,06,28,08,40,15.70
2012,06,28,08,41,15.70
2012,06,28,08,42,15.70
2012,06,28,08,43,15.70
2012,06,28,08,44,15.70
2012,06,28,08,45,15.70
2012,06,28,08,46,15.70
2012,06,28,08,47,15.70
2012,06,28,08,48,15.70
2012,06,28,08,49,15.70
2012,06,28,08,50,15.70
2012,06,28,08,51,15.80
2012,06,28,08,52,15.80
2012,06,28,08,53,15.80
2012,06,28,08,54,15.80
2012,06,28,08,55,15.80
2012,06,28,08,56,15.80
2012,06,28,08,57,15.80
2012,06,28,08,58,15.80
2012,06,28,08,59,15.80
2012,06,28,09,00,15.80
2012,06,28,09,01,15.80
2012,06,28,09,02,15.80
2012,06,28,09,03,15.80
2012,06,28,09,04,15.80
2012,06,28,09,05,15.80
2012,06,28,09,06,15.80
2012,06,28,09,07,15.90
2012,06,28,09,08,15.90
2012,06,28,09,09,16.00
2012,06,28,09,10,16.00
2012,06,28,09,11,16.00
2012,06,28,09,12,16.10
2012,06,28,09,13,16.10
2012,06,28,09,14,16.10
2012,06,28,09,15,16.20
2012,06,28,09,16,16.20
2012,06,28,09,17,16.20
2012,06,28,09,18,16.20
2012,06,28,09,19,16.20
2012,06,28,09,20,16.20
2012,06,28,09,21,16.20
2012,06,28,09,22,16.20
2012,06,28,09,23,16.20
2012,06,28,09,24,16.20
2012,06,28,09,25,16.20
2012,06,28,09,26,16.20
2012,06,28,09,27,16.20
2012,06,28,09,28,16.20
2012,06,28,09,29,16.30
2012,06,28,09,30,16.30
2012,06,28,09,31,16.30
2012,06,28,09,32,16.30
2012,06,28,09,33,16.30
2012,06,28,09,34,16.30
2012,06,28,09,35,16.40
2012,06,28,09,36,16.40
2012,06,28,09,37,16.40
2012,06,28,09,38,16.40
2012,06,28,09,39,16.40
2012,06,28,09,40,16.40
2012,06,28,09,41,16.40
2012,06,28,09,42,16.40
2012,06,28,09,43,16.50
2012,06,28,09,44,16.40
2012,06,28,09,45,16.40
2012,06,28,09,46,16.40
2012,06,28,09,47,16.40
2012,06,28,09,48,16.40
2012,06,28,09,49,16.40
2012,06,28,09,50,16.40
2012,06,28,09,51,16.40
2012,06,28,09,52,16.40
2012,06,28,09,53,16.40
2012,06,28,09,54,16.40
2012,06,28,09,55,16.40
2012,06,28,09,56,16.40
2012,06,28,09,57,16.40
2012,06,28,09,58,16.40
2012,06,28,09,59,16.30
2012,06,28,10,00,16.30
2012,06,28,10,01,16.30
2012,06,28,10,02,16.30
2012,06,28,10,03,16.30
2012,06,28,10,04,16.30
2012,06,28,10,05,16.30
2012,06,28,10,06,16.30
2012,06,28,10,07,16.30
2012,06,28,10,08,16.30
2012,06,28,10,09,16.30
2012,06,28,10,10,16.30
2012,06,28,10,11,16.30
2012,06,28,10,12,16.30
2012,06,28,10,13,16.30
2012,06,28,10,14,16.30
2012,06,28,10,15,16.30
2012,06,28,10,16,16.30
2012,06,28,10,17,16.20
2012,06,28,10,18,16.20
2012,06,28,10,19,16.20
2012,06,28,10,20,16.20
2012,06,28,10,21,16.20
2012,06,28,10,22,16.10
2012,06,28,10,23,16.10
2012,06,28,10,24,16.10
2012,06,28,10,25,16.10
2012,06,28,10,26,16.10
2012,06,28,10,27,16.10
2012,06,28,10,28,16.10
2012,06,28,10,29,16.10
2012,06,28,10,30,16.10
2012,06,28,10,31,16.10
2012,06,28,10,32,16.20
2012,06,28,10,33,16.20
2012,06,28,10,34,16.20
2012,06,28,10,35,16.30
2012,06,28,10,36,16.30
2012,06,28,10,37,16.30
2012,06,28,10,38,16.30
2012,06,28,10,39,16.30
2012,06,28,10,40,16.40
2012,06,28,10,41,16.40
2012,06,28,10,42,16.40
2012,06,28,10,43,16.50
2012,06,28,10,44,16.60
2012,06,28,10,45,16.60
2012,06,28,10,46,16.60
2012,06,28,10,47,16.60
2012,06,28,10,48,16.60
2012,06,28,10,49,16.60
2012,06,28,10,50,16.60
2012,06,28,10,51,16.70
2012,06,28,10,52,16.70
2012,06,28,10,53,16.70
2012,06,28,10,54,16.70
2012,06,28,10,55,16.80
2012,06,28,10,56,16.80
2012,06,28,10,57,16.80
2012,06,28,10,58,16.80
2012,06,28,10,59,16.80
2012,06,28,11,00,16.80
2012,06,28,11,01,16.80
2012,06,28,11,02,16.80
2012,06,28,11,03,16.90
2012,06,28,11,04,16.90
2012,06,28,11,05,16.90
2012,06,28,11,06,16.90
2012,06,28,11,07,16.90
2012,06,28,11,08,16.90
2012,06,28,11,09,16.90
2012,06,28,11,10,16.90
2012,06,28,11,11,16.90
2012,06,28,11,12,16.90
2012,06,28,11,13,16.90
2012,06,28,11,14,16.90
2012,06,28,11,15,16.90
2012,06,28,11,16,16.80
2012,06,28,11,17,16.80
2012,06,28,11,18,16.80
2012,06,28,11,19,16.80
2012,06,28,11,20,16.80
2012,06,28,11,21,16.80
2012,06,28,11,22,16.80
2012,06,28,11,23,16.80
2012,06,28,11,24,16.80
2012,06,28,11,25,16.80
2012,06,28,11,26,16.80
2012,06,28,11,27,16.80
2012,06,28,11,28,16.80
2012,06,28,11,29,16.80
2012,06,28,11,30,16.80
2012,06,28,11,31,16.80
2012,06,28,11,32,16.80
2012,06,28,11,33,16.80
2012,06,28,11,34,16.80
2012,06,28,11,35,16.80
2012,06,28,11,36,16.90
2012,06,28,11,37,16.90
2012,06,28,11,38,16.90
2012,06,28,11,39,16.90
2012,06,28,11,40,16.90
2012,06,28,11,41,17.00
2012,06,28,11,42,17.00
2012,06,28,11,43,17.10
2012,06,28,11,44,17.10
2012,06,28,11,45,17.10
2012,06,28,11,46,17.10
2012,06,28,11,47,17.10
2012,06,28,11,48,17.20
2012,06,28,11,49,17.20
2012,06,28,11,50,17.20
2012,06,28,11,51,17.20
2012,06,28,11,52,17.20
2012,06,28,11,53,17.20
2012,06,28,11,54,17.20
2012,06,28,11,55,17.20
2012,06,28,11,56,17.20
2012,06,28,11,57,17.20
2012,06,28,11,58,17.10
2012,06,28,11,59,17.10
2012,06,28,12,00,17.10
2012,06,28,12,01,17.10
2012,06,28,12,02,17.10
2012,06,28,12,03,17.00
2012,06,28,12,04,17.00
2012,06,28,12,05,17.00
2012,06,28,12,06,17.00
2012,06,28,12,07,16.90
2012,06,28,12,08,16.90
2012,06,28,12,09,16.90
2012,06,28,12,10,16.90
2012,06,28,12,11,16.90
2012,06,28,12,12,16.90
2012,06,28,12,13,16.90
2012,06,28,12,14,16.90
2012,06,28,12,15,16.80
2012,06,28,12,16,16.80
2012,06,28,12,17,16.80
2012,06,28,12,18,16.80
2012,06,28,12,19,16.80
2012,06,28,12,20,16.80
2012,06,28,12,21,16.70
2012,06,28,12,22,16.70
2012,06,28,12,23,16.70
2012,06,28,12,24,16.70
2012,06,28,12,25,16.70
2012,06,28,12,26,16.70
2012,06,28,12,27,16.60
2012,06,28,12,28,16.60
2012,06,28,12,29,16.60
2012,06,28,12,30,16.60
2012,06,28,12,31,16.60
2012,06,28,12,32,16.60
2012,06,28,12,33,16.60
2012,06,28,12,34,16.50
2012,06,28,12,35,16.50
2012,06,28,12,36,16.50
2012,06,28,12,37,16.50
2012,06,28,12,38,16.50
2012,06,28,12,39,16.40
2012,06,28,12,40,16.40
2012,06,28,12,41,16.50
2012,06,28,12,42,16.50
2012,06,28,12,43,16.50
2012,06,28,12,44,16.50
2012,06,28,12,45,16.50
2012,06,28,12,46,16.50
2012,06,28,12,47,16.50
2012,06,28,12,48,16.50
2012,06,28,12,49,16.50
2012,06,28,12,50,16.50
2012,06,28,12,51,16.50
2012,06,28,12,52,16.50
2012,06,28,12,53,16.60
2012,06,28,12,54,16.60
2012,06,28,12,55,16.60
2012,06,28,12,56,16.60
2012,06,28,12,57,16.60
2012,06,28,12,58,16.60
2012,06,28,12,59,16.70
2012,06,28,13,00,16.70
2012,06,28,13,01,16.70
2012,06,28,13,02,16.70
2012,06,28,13,03,16.70
2012,06,28,13,04,16.70
2012,06,28,13,05,16.70
2012,06,28,13,06,16.70
2012,06,28,13,07,16.70
2012,06,28,13,08,16.70
2012,06,28,13,09,16.70
2012,06,28,13,10,16.70
2012,06,28,13,11,16.70
2012,06,28,13,12,16.70
2012,06,28,13,13,16.70
2012,06,28,13,14,16.70
2012,06,28,13,15,16.70
2012,06,28,13,16,16.70
2012,06,28,13,17,16.70
2012,06,28,13,18,16.70
2012,06,28,13,19,16.70
2012,06,28,13,20,16.70
2012,06,28,13,21,16.70
2012,06,28,13,22,16.70
2012,06,28,13,23,16.70
2012,06,28,13,24,16.70
2012,06,28,13,25,16.70
2012,06,28,13,26,16.70
2012,06,28,13,27,16.70
2012,06,28,13,28,16.70
2012,06,28,13,29,16.80
2012,06,28,13,30,16.80
2012,06,28,13,31,16.80
2012,06,28,13,32,16.80
2012,06,28,13,33,16.80
2012,06,28,13,34,16.80
2012,06,28,13,35,16.80
2012,06,28,13,36,16.80
2012,06,28,13,37,16.80
2012,06,28,13,38,16.80
2012,06,28,13,39,16.80
2012,06,28,13,40,16.90
2012,06,28,13,41,16.90
2012,06,28,13,42,16.90
2012,06,28,13,43,16.90
2012,06,28,13,44,16.90
2012,06,28,13,45,16.90
2012,06,28,13,46,16.90
2012,06,28,13,47,16.90
2012,06,28,13,48,16.90
2012,06,28,13,49,16.90
2012,06,28,13,50,16.90
2012,06,28,13,51,16.90
2012,06,28,13,52,16.90
2012,06,28,13,53,16.90
2012,06,28,13,54,16.90
2012,06,28,13,55,16.90
2012,06,28,13,56,16.90
2012,06,28,13,57,16.90
2012,06,28,13,58,17.00
2012,06,28,13,59,17.00
2012,06,28,14,00,17.00
2012,06,28,14,01,17.00
2012,06,28,14,02,17.00
2012,06,28,14,03,17.00
2012,06,28,14,04,17.10
2012,06,28,14,05,17.10
2012,06,28,14,06,17.10
2012,06,28,14,07,17.10
2012,06,28,14,08,17.10
2012,06,28,14,09,17.10
2012,06,28,14,10,17.10
2012,06,28,14,11,17.10
2012,06,28,14,12,17.00
2012,06,28,14,13,17.00
2012,06,28,14,14,17.00
2012,06,28,14,15,17.00
2012,06,28,14,16,17.00
2012,06,28,14,17,17.00
2012,06,28,14,18,17.00
2012,06,28,14,19,17.00
2012,06,28,14,20,17.00
2012,06,28,14,21,17.00
2012,06,28,14,22,17.00
2012,06,28,14,23,17.00
2012,06,28,14,24,17.00
2012,06,28,14,25,17.00
2012,06,28,14,26,16.90
2012,06,28,14,27,16.90
2012,06,28,14,28,16.90
2012,06,28,14,29,16.90
2012,06,28,14,30,16.90
2012,06,28,14,31,16.90
2012,06,28,14,32,16.90
2012,06,28,14,33,16.90
2012,06,28,14,34,16.90
2012,06,28,14,35,16.90
2012,06,28,14,36,16.90
2012,06,28,14,37,16.80
2012,06,28,14,38,16.80
2012,06,28,14,39,16.80
2012,06,28,14,40,16.80
2012,06,28,14,41,16.70
2012,06,28,14,42,16.70
2012,06,28,14,43,16.70
2012,06,28,14,44,16.70
2012,06,28,14,45,16.60
2012,06,28,14,46,16.60
2012,06,28,14,47,16.50
2012,06,28,14,48,16.50
2012,06,28,14,49,16.40
2012,06,28,14,50,16.40
2012,06,28,14,51,16.40
2012,06,28,14,52,16.40
2012,06,28,14,53,16.40
2012,06,28,14,54,16.30
2012,06,28,14,55,16.30
2012,06,28,14,56,16.30
2012,06,28,14,57,16.30
2012,06,28,14,58,16.30
2012,06,28,14,59,16.30
2012,06,28,15,00,16.30
2012,06,28,15,01,16.30
2012,06,28,15,02,16.20
2012,06,28,15,03,16.20
2012,06,28,15,04,16.30
2012,06,28,15,05,16.20
2012,06,28,15,06,16.20
2012,06,28,15,07,16.20
2012,06,28,15,08,16.20
2012,06,28,15,09,16.20
2012,06,28,15,10,16.20
2012,06,28,15,11,16.20
2012,06,28,15,12,16.20
2012,06,28,15,13,16.20
2012,06,28,15,14,16.20
2012,06,28,15,15,16.20
2012,06,28,15,16,16.20
2012,06,28,15,17,16.20
2012,06,28,15,18,16.10
2012,06,28,15,19,16.10
2012,06,28,15,20,16.10
2012,06,28,15,21,16.20
2012,06,28,15,22,16.10
2012,06,28,15,23,16.10
2012,06,28,15,24,16.10
2012,06,28,15,25,16.10
2012,06,28,15,26,16.10
2012,06,28,15,27,16.10
2012,06,28,15,28,16.10
2012,06,28,15,29,16.10
2012,06,28,15,30,16.10
2012,06,28,15,31,16.10
2012,06,28,15,32,16.10
2012,06,28,15,33,16.10
2012,06,28,15,34,16.10
2012,06,28,15,35,16.10
2012,06,28,15,36,16.10
2012,06,28,15,37,16.10
2012,06,28,15,38,16.10
2012,06,28,15,39,16.10
2012,06,28,15,40,16.10
2012,06,28,15,41,16.00
2012,06,28,15,42,16.00
2012,06,28,15,43,15.90
2012,06,28,15,44,15.90
2012,06,28,15,45,15.80
2012,06,28,15,46,15.80
2012,06,28,15,47,15.80
2012,06,28,15,48,15.80
2012,06,28,15,49,15.80
2012,06,28,15,50,15.80
2012,06,28,15,51,15.80
2012,06,28,15,52,15.80
2012,06,28,15,53,15.80
2012,06,28,15,54,15.80
2012,06,28,15,55,15.80
2012,06,28,15,56,15.80
2012,06,28,15,57,15.70
2012,06,28,15,58,15.70
2012,06,28,15,59,15.70
2012,06,28,16,00,15.70
2012,06,28,16,01,15.70
2012,06,28,16,02,15.70
2012,06,28,16,03,15.70
2012,06,28,16,04,15.70
2012,06,28,16,05,15.70
2012,06,28,16,06,15.60
2012,06,28,16,07,15.60
2012,06,28,16,08,15.60
2012,06,28,16,09,15.50
2012,06,28,16,10,15.50
2012,06,28,16,11,15.50
2012,06,28,16,12,15.50
2012,06,28,16,13,15.40
2012,06,28,16,14,15.40
2012,06,28,16,15,15.40
2012,06,28,16,16,15.30
2012,06,28,16,17,15.30
2012,06,28,16,18,15.30
2012,06,28,16,19,15.20
2012,06,28,16,20,15.20
2012,06,28,16,21,15.20
2012,06,28,16,22,15.10
2012,06,28,16,23,15.00
2012,06,28,16,24,15.00
2012,06,28,16,25,15.00
2012,06,28,16,26,15.00
2012,06,28,16,27,15.00
2012,06,28,16,28,15.00
2012,06,28,16,29,15.00
2012,06,28,16,30,14.90
2012,06,28,16,31,14.90
2012,06,28,16,32,14.80
2012,06,28,16,33,14.80
2012,06,28,16,34,14.70
2012,06,28,16,35,14.70
2012,06,28,16,36,14.70
2012,06,28,16,37,14.70
2012,06,28,16,38,14.70
2012,06,28,16,39,14.70
2012,06,28,16,40,14.70
2012,06,28,16,41,14.70
2012,06,28,16,42,14.70
2012,06,28,16,43,14.70
2012,06,28,16,44,14.60
2012,06,28,16,45,14.60
2012,06,28,16,46,14.60
2012,06,28,16,47,14.60
2012,06,28,16,48,14.60
2012,06,28,16,49,14.60
2012,06,28,16,50,14.60
2012,06,28,16,51,14.60
2012,06,28,16,52,14.60
2012,06,28,16,53,14.60
2012,06,28,16,54,14.50
2012,06,28,16,55,14.50
2012,06,28,16,56,14.50
2012,06,28,16,57,14.50
2012,06,28,16,58,14.40
2012,06,28,16,59,14.40
2012,06,28,17,00,14.40
2012,06,28,17,01,14.40
2012,06,28,17,02,14.40
2012,06,28,17,03,14.40
2012,06,28,17,04,14.50
2012,06,28,17,05,14.50
2012,06,28,17,06,14.50
2012,06,28,17,07,14.50
2012,06,28,17,08,14.50
2012,06,28,17,09,14.40
2012,06,28,17,10,14.40
2012,06,28,17,11,14.40
2012,06,28,17,12,14.30
2012,06,28,17,13,14.30
2012,06,28,17,14,14.30
2012,06,28,17,15,14.30
2012,06,28,17,16,14.30
2012,06,28,17,17,14.20
2012,06,28,17,18,14.20
2012,06,28,17,19,14.20
2012,06,28,17,20,14.10
2012,06,28,17,21,14.10
2012,06,28,17,22,14.10
2012,06,28,17,23,14.10
2012,06,28,17,24,14.10
2012,06,28,17,25,14.10
2012,06,28,17,26,14.00
2012,06,28,17,27,14.00
2012,06,28,17,28,14.00
2012,06,28,17,29,14.00
2012,06,28,17,30,14.00
2012,06,28,17,31,14.00
2012,06,28,17,32,14.00
2012,06,28,17,33,14.00
2012,06,28,17,34,14.10
2012,06,28,17,35,14.10
2012,06,28,17,36,14.10
2012,06,28,17,37,14.10
2012,06,28,17,38,14.10